Cosmos 1125 Rocket - Orbit

View from above orbital plane
View from above orbital plane
View from above satellite
View from above satellite

Ground track
Ground track

The orbit data is extracted from the following two-line orbital elements,

1 11511U 79078B   13140.52049110  .00000128  00000-0  52694-4 0  5112
2 11511 074.0359 170.4939 0014893 054.4181 097.6866 14.36210202764864
Epoch (UTC): 20 May 2013 12:29:30
Eccentricity: 0.0014893
inclination: 74.0359°
perigee height: 760 km
apogee height: 781 km
right ascension of ascending node: 170.4939°
argument of perigee: 54.4181°
revolutions per day: 14.36210202
mean anomaly at epoch: 97.6866°
orbit number at epoch: 76486

The dashed part of the orbit path shows where the satellite is in the earth's shadow,  

Developed and maintained by Chris Peat, Heavens-Above GmbH. Please read the updated FAQ before sending e-mail. Imprint. DLR